Voltar ao catálogo

DELTA 1 DEB

AtivoPO
NORAD 42566·DEBRIS·🇺🇸 United States

Lançado Jul 23, 1972 de Vandenberg Space Force Base

Loading…

Próximas Passagens (próximas 24 horas)

TLE

AtualizadoSource: Space-Track

Época: Sep 13, 2026, 18:35 UTC

1 42566U 72058JZ  26256.77450691  .00000839  00000-0  49277-3 0  9997
2 42566  98.1484   5.4839 0476921 188.0819 171.2446 13.65208244635624

Acompanhe DELTA 1 DEB em tempo real com AllMySat

Download on the App Store